{"data":{"norad_id":65296,"intl_designator":"2025-184Z","name":"STARLINK-34872","alt_names":[],"object_type":"PAYLOAD","status":"ACTIVE","operator":null,"country":"US","launch_date":"2025-08-22","launch_site_code":"AFWTR","launch_vehicle":null,"mission":null,"orbit_class":"UNKNOWN","rcs_meters":null,"size_class":null,"mass_kg":null,"dimensions":null,"purposes":["comms"],"wikipedia_slug":null,"has_3d_model":false,"image_url":null,"decayed_at":null,"tle_current":{"epoch":"2026-09-20T22:09:03.780288Z","epoch_age_seconds":80931,"freshness":"FRESH","line1":"1 65296U 25184Z   26263.92296042  .00013807  00000+0  42936-3 0  9996","line2":"2 65296  97.2815 311.9476 0001488  96.2976 263.8436 15.33434897 60794","mean_motion":15.33434897,"eccentricity":0.0001488,"inclination_deg":97.2815,"raan_deg":311.9476,"arg_perigee_deg":96.2976,"mean_anomaly_deg":263.8436,"bstar":0.00042936,"rev_number":6079,"period_min":93.906823355671,"perigee_km":464.55488998027,"apogee_km":466.59157814593,"semimajor_km":6843.7102340631,"source":"CELESTRAK","updated_at":"2026-09-21T09:00:35.568507Z"}}}